www.pogodaiklimat.ru

Погода и климат >> Архив погоды >> Германия >> Leuchtturm Alte Weser


ПОГОДА в Leuchtturm Alte Weser

  • Прогноз погоды в Leuchtturm Alte Weser
  • Монитор погоды в Leuchtturm Alte Weser
  • Климат города

АРХИВ ПОГОДЫ в Leuchtturm Alte Weser

Время (UTC), дата Ветер
(напр.,м/с)
 
Видим.   Явления Облачность Т
(С)
Тd
(С)
f
(%)
Тe
(С)
Тes
(С)
Комфортность P
(гПа)
Po
(гПа)
Тmin
(С)
Tmax
(С)
R
(мм)
R24
(мм)
S
(см)
17 10.07 СВ 5 н/о н/о +19.5 +10.0 54 +20 +20 1016.5 1012.9
16 10.07 В 6 н/о н/о +19.4 +10.4 56 +20 +20 1016.3 1012.7
18 10.07 С 4 н/о н/о +18.7 +12.2 66 +19 +19 1016.8 1013.2 +14.5 +20.4
19 10.07 СВ 9 н/о н/о +18.5 +10.5 60 +18 +18 1017.1 1013.5
20 10.07 СВ 8 н/о н/о +18.2 +11.0 63 +18 +18 1017.7 1014.0
21 10.07 СВ 9 н/о н/о +17.6 +12.3 71 +16 +16 1017.8 1014.1
23 10.07 СВ 6 н/о н/о +17.6 +12.9 74 +17 +17 1018.1 1014.4
22 10.07 СВ 7 н/о н/о +17.6 +12.4 72 +17 +17 1018.1 1014.4
00 11.07 СВ 7 н/о н/о +17.5 +13.7 78 +17 +17 1017.8 1014.1
01 11.07 СВ 4 н/о н/о +16.0 +14.8 93 +15 +15 1017.9 1014.2
02 11.07 СВ 8 н/о н/о +17.4 +13.5 78 +16 +16 1017.4 1013.7
03 11.07 СВ 7 н/о н/о +17.2 +14.0 81 +16 +16 1017.2 1013.5
05 11.07 С 7 н/о н/о +16.9 +14.6 86 +16 +16 1016.9 1013.2
04 11.07 СВ 8 н/о н/о +17.1 +14.4 84 +16 +16 1016.9 1013.2
06 11.07 С 9 н/о н/о +17.0 +15.1 89 +16 +16 1017.0 1013.3 +15.9 +19.6
07 11.07 С 8 н/о н/о +17.3 +15.3 88 +16 +16 1017.1 1013.4
08 11.07 С 7 н/о н/о +17.4 +14.8 85 +16 +16 1017.0 1013.3
09 11.07 С 7 н/о н/о +17.6 +14.8 84 +17 +17 1016.7 1013.1
11 11.07 С 8 н/о н/о +17.8 +15.4 86 +17 +17 1016.4 1012.7
10 11.07 С 8 н/о н/о +17.4 +15.1 86 +16 +16 1016.6 1012.9
12 11.07 С 7 н/о н/о +18.0 +15.8 87 +17 +17 1016.4 1012.8
13 11.07 С 8 н/о н/о +17.8 +15.9 89 +17 +17 1016.3 1012.6
14 11.07 С 9 н/о н/о +18.0 +15.6 86 +17 +17 1016.1 1012.4
15 11.07 С 9 н/о н/о +18.1 +15.5 85 +17 +17 1016.2 1012.5
17 11.07 С 7 н/о н/о +18.3 +15.9 86 +18 +18 1016.0 1012.4
16 11.07 С 8 н/о н/о +18.1 +15.4 84 +17 +17 1016.2 1012.5
18 11.07 С 7 н/о н/о +18.6 +15.1 80 +19 +19 1016.0 1012.4 +16.9 +18.6
19 11.07 С 8 н/о н/о +18.1 +15.2 83 +17 +17 1016.1 1012.4
20 11.07 С 7 н/о н/о +17.8 +15.9 89 +17 +17 1016.3 1012.6
21 11.07 С 7 н/о н/о +17.9 +16.0 89 +17 +17 1016.3 1012.6
23 11.07 С 6 н/о н/о +17.6 +16.0 90 +17 +17 1016.2 1012.5
22 11.07 С 7 н/о н/о +17.7 +15.9 89 +17 +17 1016.4 1012.7
00 12.07 С 4 н/о н/о +17.5 +16.5 94 +17 +17 1016.2 1012.6
01 12.07 С 4 н/о н/о +17.5 +16.7 95 +17 +17 1016.1 1012.5
02 12.07 С 2 н/о н/о +17.6 +16.8 95 +18 +18 1016.1 1012.4
03 12.07 СЗ 4 н/о н/о +17.6 +17.1 97 +17 +17 1016.1 1012.4
05 12.07 СЗ 5 н/о н/о +17.3 +16.9 97 +17 +17 1016.1 1012.4
04 12.07 С 4 н/о н/о +17.3 +17.0 98 +17 +17 1015.9 1012.3
06 12.07 С 6 н/о н/о +17.2 +16.9 98 +16 +16 1016.5 1012.8 +17.2 +18.6
07 12.07 С 5 н/о н/о +17.3 +16.9 97 +17 +17 1016.9 1013.2
08 12.07 С 6 н/о н/о +17.0 +16.6 97 +16 +16 1016.9 1013.2
09 12.07 СЗ 6 н/о н/о +16.9 +16.6 98 +16 +16 1017.2 1013.5
11 12.07 СЗ 7 н/о н/о +16.8 +15.7 93 +16 +16 1017.9 1014.2
10 12.07 СЗ 7 н/о н/о +16.7 +15.7 94 +15 +15 1017.4 1013.7
12 12.07 СЗ 7 н/о н/о +16.1 +15.3 95 +15 +15 1017.8 1014.1
13 12.07 СЗ 8 н/о н/о +15.7 +14.9 95 +14 +14 1017.8 1014.1
14 12.07 СЗ 9 н/о н/о +15.8 +14.4 91 +14 +14 1017.7 1014.0
15 12.07 СЗ 9 н/о н/о +15.7 +14.2 91 +14 +14 1017.7 1014.0
17 12.07 СЗ 9 н/о н/о +15.8 +14.4 91 +14 +14 1017.6 1013.9
16 12.07 СЗ 8 н/о н/о +15.9 +14.5 91 +14 +14 1017.9 1014.2
18 12.07 СЗ 9 н/о н/о +15.7 +14.1 90 +14 +14 1017.9 1014.2 +15.4 +17.3
19 12.07 СЗ 9 н/о н/о +15.6 +14.1 91 +14 +14 1018.0 1014.3
20 12.07 СЗ 9 н/о н/о +15.5 +14.1 91 +13 +13 1018.3 1014.6
21 12.07 СЗ 8 н/о н/о +15.2 +13.8 91 +13 +13 1018.7 1014.9
23 12.07 СЗ 6 н/о н/о +15.2 +13.9 92 +14 +14 1018.6 1014.9
22 12.07 СЗ 6 н/о н/о +15.4 +14.0 91 +14 +14 1018.8 1015.1
00 13.07 СЗ 6 н/о н/о +15.0 +13.3 90 +13 +13 1018.7 1015.0
01 13.07 СЗ 6 н/о н/о +14.9 +13.1 89 +13 +13 1018.9 1015.2
02 13.07 СЗ 6 н/о н/о +15.1 +13.6 91 +13 +13 1018.7 1015.0
03 13.07 СЗ 7 н/о н/о +14.9 +13.3 90 +13 +13 1018.7 1015.0
05 13.07 СЗ 7 н/о н/о +15.2 +13.2 88 +13 +13 1019.1 1015.3
04 13.07 СЗ 6 н/о н/о +15.2 +13.2 88 +14 +14 1018.9 1015.2
06 13.07 СЗ 7 н/о н/о +15.2 +12.8 86 +13 +13 1019.4 1015.6 +14.8 +15.9
07 13.07 СЗ 6 н/о н/о +15.4 +12.7 84 +14 +14 1019.9 1016.2
08 13.07 СЗ 6 н/о н/о +15.2 +12.3 83 +14 +14 1020.0 1016.3
09 13.07 СЗ 7 н/о н/о +15.0 +12.8 87 +13 +13 1020.3 1016.6
11 13.07 СЗ 8 н/о н/о +15.0 +12.9 87 +13 +13 1021.0 1017.3
10 13.07 СЗ 7 н/о н/о +15.0 +12.9 87 +13 +13 1020.8 1017.0
12 13.07 СЗ 9 н/о н/о +15.3 +13.2 87 +13 +13 1021.0 1017.3
13 13.07 СЗ 8 н/о н/о +15.3 +12.7 84 +13 +13 1021.2 1017.5
14 13.07 СЗ 8 н/о н/о +15.8 +12.8 82 +14 +14 1021.2 1017.5
15 13.07 СЗ 8 н/о н/о +15.8 +12.3 80 +14 +14 1021.2 1017.4
17 13.07 СЗ 7 н/о н/о +16.0 +12.0 77 +14 +14 1020.8 1017.1
16 13.07 СЗ 8 н/о н/о +15.9 +12.0 78 +14 +14 1021.0 1017.2
18 13.07 СЗ 6 н/о н/о +15.9 +12.4 80 +15 +15 1020.8 1017.1 +14.8 +16.2
19 13.07 С 7 н/о н/о +15.8 +12.0 78 +14 +14 1020.9 1017.1
20 13.07 СЗ 6 н/о н/о +15.8 +11.8 77 +14 +14 1021.0 1017.3
21 13.07 С 5 н/о н/о +16.1 +11.7 75 +15 +15 1021.2 1017.5
23 13.07 СЗ 4 н/о н/о +15.8 +12.6 81 +15 +15 1021.1 1017.4
22 13.07 СЗ 3 н/о н/о +15.9 +12.9 82 +15 +15 1021.3 1017.6
00 14.07 СЗ 5 н/о н/о +15.8 +12.8 82 +15 +15 1020.9 1017.2
01 14.07 СЗ 4 н/о н/о +15.9 +12.0 78 +15 +15 1020.7 1017.0
02 14.07 СЗ 3 н/о н/о +15.9 +12.2 79 +15 +15 1020.5 1016.8
03 14.07 З 5 н/о н/о +16.1 +11.8 76 +15 +15 1020.4 1016.7
05 14.07 СЗ 4 н/о н/о +15.9 +12.1 78 +15 +15 1020.5 1016.8
04 14.07 СЗ 5 н/о н/о +15.9 +12.5 80 +15 +15 1020.3 1016.6
06 14.07 СЗ 6 н/о н/о +15.6 +11.6 77 +14 +14 1020.6 1016.9 +15.6 +16.3
07 14.07 СЗ 5 н/о н/о +16.0 +12.3 79 +15 +15 1021.0 1017.3
08 14.07 СЗ 5 н/о н/о +15.6 +12.5 82 +14 +14 1021.2 1017.5
09 14.07 СЗ 4 н/о н/о +16.0 +11.1 73 +15 +15 1021.4 1017.7
11 14.07 СЗ 4 н/о н/о +16.1 +11.1 72 +15 +15 1021.3 1017.6
10 14.07 СЗ 3 н/о н/о +16.5 +10.9 69 +16 +16 1021.5 1017.7
12 14.07 СЗ 5 н/о н/о +15.4 +12.5 83 +14 +14 1021.4 1017.7
13 14.07 СЗ 4 н/о н/о +16.1 +12.4 79 +15 +15 1021.2 1017.5
14 14.07 СЗ 4 н/о н/о +16.3 +12.0 76 +16 +16 1020.7 1017.0
15 14.07 СЗ 4 н/о н/о +16.3 +12.3 77 +16 +16 1020.5 1016.8
17 14.07 С 5 н/о н/о +16.3 +11.5 73 +15 +15 1020.1 1016.4
16 14.07 СЗ 5 н/о н/о +16.3 +12.4 78 +15 +15 1020.1 1016.4
18 14.07 С 4 н/о н/о +16.2 +12.0 76 +15 +15 1019.8 1016.1 +15.2 +16.6
19 14.07 С 4 н/о н/о +16.2 +12.3 78 +15 +15 1019.7 1016.0
20 14.07 С 4 н/о н/о +16.2 +11.6 74 +15 +15 1020.0 1016.3
21 14.07 С 3 н/о н/о +16.0 +12.0 77 +16 +16 1019.9 1016.2
23 14.07 С 4 н/о н/о +15.9 +12.1 78 +15 +15 1019.8 1016.1
22 14.07 С 3 н/о н/о +16.0 +12.4 79 +16 +16 1019.9 1016.2
00 15.07 С 2 н/о н/о +15.8 +12.4 80 +16 +16 1019.5 1015.8
01 15.07 СЗ 1 н/о н/о +15.7 +12.9 83 +16 +16 1019.3 1015.6
02 15.07 З 1 н/о н/о +15.6 +12.9 84 +16 +16 1019.4 1015.7
03 15.07 СЗ 1 н/о н/о +15.8 +13.0 83 +16 +16 1019.1 1015.4
05 15.07 З 1 н/о н/о +16.0 +12.5 80 +17 +17 1019.1 1015.4
04 15.07 З 1 н/о н/о +15.9 +12.8 82 +17 +17 1019.0 1015.3
06 15.07 З 1 н/о н/о +16.2 +13.0 81 +17 +17 1019.4 1015.7 +15.4 +16.5
07 15.07 З 1 н/о н/о +16.3 +12.9 80 +17 +17 1019.4 1015.7
08 15.07 З 2 н/о н/о +15.9 +14.0 88 +16 +16 1019.6 1015.9
09 15.07 З 1 н/о н/о +16.1 +13.8 86 +17 +17 1019.6 1015.9
10 15.07 СЗ 1 н/о н/о +16.4 +13.6 84 +17 +17 1019.7 1016.0
12 15.07 С 2 н/о н/о +16.5 +13.2 81 +17 +17 1019.4 1015.7
13 15.07 СВ 2 н/о н/о +17.4 +12.8 74 +18 +18 1019.0 1015.3
14 15.07 СВ 3 н/о н/о +17.5 +13.0 75 +18 +18 1018.6 1014.9
15 15.07 С 4 н/о н/о +18.1 +13.6 75 +18 +18 1018.0 1014.3
16 15.07 С 5 н/о н/о +18.1 +14.0 77 +18 +18 1017.7 1014.1
17 15.07 С 5 н/о н/о +18.1 +13.7 75 +18 +18 1017.3 1013.6
18 15.07 С 5 н/о н/о +18.2 +12.9 71 +18 +18 1017.0 1013.3 +15.8 +18.3
19 15.07 С 6 н/о н/о +18.2 +13.1 72 +18 +18 1017.0 1013.3
20 15.07 СВ 6 н/о н/о +18.1 +13.2 73 +18 +18 1017.3 1013.6
21 15.07 СВ 5 н/о н/о +18.1 +13.9 76 +18 +18 1017.2 1013.5
22 15.07 СВ 4 н/о н/о +18.2 +14.8 81 +18 +18 1017.4 1013.7
23 15.07 СВ 5 н/о н/о +18.3 +14.8 80 +18 +18 1017.3 1013.6
00 16.07 СВ 5 н/о н/о +18.3 +14.5 79 +18 +18 1017.0 1013.4
01 16.07 СВ 5 н/о н/о +18.0 +14.0 77 +18 +18 1016.7 1013.1
02 16.07 СВ 5 н/о н/о +18.0 +14.5 80 +18 +18 1016.3 1012.7
03 16.07 В 5 н/о н/о +18.2 +14.5 79 +18 +18 1016.0 1012.3
04 16.07 В 6 н/о н/о +18.4 +14.6 79 +18 +18 1015.9 1012.3
05 16.07 В 5 н/о н/о +18.4 +14.2 77 +19 +19 1015.9 1012.3
06 16.07 ЮВ 5 н/о н/о +18.6 +14.4 77 +19 +19 1015.9 1012.3 +17.9 +18.6
07 16.07 ЮВ 4 н/о н/о +18.7 +14.8 78 +19 +19 1015.9 1012.2
08 16.07 ЮВ 3 н/о н/о +19.3 +15.3 78 +21 +21 комфорт 1015.8 1012.2
09 16.07 ЮВ 2 н/о н/о +19.2 +16.1 82 +21 +21 комфорт 1015.9 1012.3
10 16.07 СЗ 1 н/о н/о +18.9 +16.2 84 +21 +21 комфорт 1015.9 1012.2
11 16.07 С 2 н/о н/о +20.2 +14.3 69 +23 +23 комфорт 1015.6 1012.0
12 16.07 С 4 н/о н/о +20.9 +13.4 62 +24 +24 комфорт 1015.2 1011.6
13 16.07 С 5 н/о н/о +21.1 +11.7 55 +23 +23 комфорт 1014.9 1011.2
14 16.07 С 7 н/о н/о +20.1 +14.7 71 +22 +22 комфорт 1014.4 1010.8
15 16.07 С 8 н/о н/о +20.4 +13.8 66 +22 +22 комфорт 1013.9 1010.2
16 16.07 С 8 н/о н/о +19.6 +15.2 76 +21 +21 комфорт 1013.6 1010.0
17 16.07 С 7 н/о н/о +19.2 +15.7 80 +20 +20 1013.5 1009.9
18 16.07 С 7 н/о н/о +19.3 +15.3 78 +20 +20 1013.4 1009.7 +18.2 +21.2
19 16.07 С 7 н/о н/о +19.5 +15.6 78 +21 +21 комфорт 1013.4 1009.8
20 16.07 С 7 н/о н/о +19.5 +15.9 80 +21 +21 комфорт 1013.9 1010.2
21 16.07 С 6 н/о н/о +19.6 +16.1 80 +21 +21 комфорт 1013.8 1010.1
22 16.07 СВ 6 н/о н/о +19.7 +17.1 85 +22 +22 комфорт 1013.6 1010.0
23 16.07 СВ 6 н/о н/о +20.2 +15.7 75 +23 +23 комфорт 1013.6 1010.0
00 17.07 СВ 6 н/о н/о +20.1 +16.5 80 +23 +23 комфорт 1013.5 1009.9
01 17.07 В 5 н/о н/о +20.0 +16.4 80 +22 +22 комфорт 1013.1 1009.4
02 17.07 В 4 н/о н/о +19.9 +16.4 80 +22 +22 комфорт 1013.0 1009.4
03 17.07 В 5 н/о н/о +19.8 +16.6 82 +22 +22 комфорт 1012.7 1009.0
04 17.07 В 4 н/о н/о +19.8 +17.1 84 +22 +22 комфорт 1012.9 1009.3
05 17.07 ЮВ 4 н/о н/о +20.5 +13.5 64 +23 +23 комфорт 1013.0 1009.4
06 17.07 ЮВ 3 н/о н/о +20.4 +14.9 71 +23 +23 комфорт 1013.1 1009.5 +19.2 +20.6
07 17.07 Ю 4 н/о н/о +20.0 +16.0 78 +23 +23 комфорт 1013.3 1009.6
08 17.07 Ю 3 н/о н/о +20.4 +16.3 77 +24 +24 комфорт 1013.3 1009.7
09 17.07 Ю 3 н/о н/о +20.8 +16.1 74 +24 +24 комфорт 1013.6 1009.9
10 17.07 Ю 2 н/о н/о +22.3 +15.5 65 +26 +26 жарко 1013.5 1009.9
11 17.07 штиль 0 н/о н/о +23.7 +12.2 48 +25 +25 комфорт 1013.5 1009.9
12 17.07 СВ 1 н/о н/о +25.1 +12.5 45 +27 +27 жарко 1013.4 1009.8
13 17.07 СВ 3 н/о н/о +26.2 +12.8 43 +28 +28 жарко 1013.2 1009.6
14 17.07 СЗ 3 н/о н/о +25.3 +12.8 46 +27 +27 жарко 1012.9 1009.3

 

Местоположение метеостанции Leuchtturm Alte Weser (Германия): широта 53.87 долгота 8.13 высота над уровнем моря 32 м.

В архиве по умолчанию представлена погода в Leuchtturm Alte Weser за последнюю неделю. Архивные данные за месяц целиком и за предыдущие месяцы, начиная с января 2011 года, Вы можете получить, выбрав интересующий диапазон дат из раскрывающегося списка и нажав кнопку "Ввод!".


*Определитесь, кто Вы:
робот инопланетянин человек

Внимание! Время в таблицах - всемирное. Для получения местного времени необходимо прибавить поправку, которая в Leuchtturm Alte Weser равна 1 ч.

Смотрите также архив погоды в соседних городах и на ближайших метеорологических станциях:

Погода в Nordholz (Германия) (37 км)
Погода в Cuxhaven (Германия) (37 км)
Погода в Helgoland (Германия) (38 км)
Погода в Wittmundhaven (Германия) (47 км)
Погода в Bremerhaven (Германия) (48 км)
Погода в Ufs Deutsche Bucht (Германия) (57 км)
Погода в St Peter-Ording (Германия) (60 км)
Погода в Elpersbuettel (Германия) (62 км)
Погода в Norderney Island (Германия) (67 км)
Погода в Bremervoerde (Германия) (80 км)

Пояснения к столбцам:

Ветер - указаны скорость ветра в м/с - средняя за 10 мин, порывы в срок и между сроками (в фигурных скобках) и направление, откуда дует ветер: С - северный, СВ - северо-восточный, В - восточный, ЮВ - юго-восточный, Ю - южный, ЮЗ - юго-западный, З - западный, СЗ - северо-западный.
Видимость - горизонтальная дальность видимости в метрах или километрах. При видимости от 1 до 10 км при отсутствии осадков обычно наблюдается дымка, при ухудшении видимости до 1 км и менее - туман. В сухую погоду видимость может ухудшаться дымом, пылью или мглою.
Явления - указаны атмосферные явления, наблюдавшиеся в срок или в последний час перед сроком; фигурными скобками обозначены явления, наблюдавшиеся между сроками (за 1-3 часа до срока); квадратными скобками обозначены град или гололедные отложения с указанием их диаметра в мм.
Облачность - указаны через наклонную черту общая и нижняя облачность в баллах и высота нижней границы облаков в метрах; квадратными скобками обозначены формы облаков: Ci - перистые, Cs - перисто-слоистые, Cc - перисто-кучевые, Ac - высококучевые, As - высокослоистые, Sc - слоисто-кучевые, Ns - слоисто-дождевые, Cu - кучевые, Cb - кучево-дождевые. Подробнее классификацию облаков см. в Атласе облаков (PDF).
T - Температура воздуха - температура, измеренная на высоте 2 м над землей.
Td - Температура точки росы - температура, при понижении до которой содержащийся в воздухе водяной пар достигнет насыщения.
f - Относительная влажность воздуха - влажноcть воздуха, измеренная на высоте 2 м над землей.
Te - Эффективная температура - температура, которую ощущает одетый по сезону человек в тени. Характеристика душности погоды. При расчете учитывается влияние влажности воздуха и скорости ветра на теплоощущения человека.
Tes - Эффективная температура на солнце - температура, которую ощущает человек, с поправкой на солнечный нагрев. Характеристика знойности погоды. Зависит от высоты солнца над горизонтом, облачности и скорости ветра. Ночью, в пасмурную погоду, а также при ветре 12 м/с и более поправка равна нулю.
P - Атмосферное давление - приведенное к уровню моря атмосферное давление.
Po - Атмосферное давление - измеренное на уровне метеостанции атмосферное давление.
Tmin - Минимальная температура - минимум температуры воздуха на высоте 2 м над землей.
Tmax - Максимальная температура - максимум температуры воздуха на высоте 2 м над землей.
R - Количество осадков - Количество выпавших осадков за период времени, мм. При наведении курсора мыши на число - период времени, за который выпало указанное количество осадков.
R24 - Количество осадков - Количество выпавших осадков за 24 часа, мм.
S - Снежный покров - Высота снежного покрова, см. При наведении курсора мыши на число - состояние снежного покрова и степень покрытия местности в баллах.